Retour au catalogue

COSMOS 2564

GLONASS

ActifNavigationMEO
NORAD 54377·PAYLOAD·🇷🇺 Russia

Lancé Nov 28, 2022 depuis Plesetsk Cosmodrome

Loading…

Prochains Passages (prochaines 24 heures)

TLE

FraisSource: CelesTrak SupGP

Époque: Sep 12, 2026, 23:59 UTC

1 54377C 22161A   26255.99979167  .00000000  00000+0  00000+0 0  2558
2 54377  64.7429 189.7992 0010980 218.7431 146.6673  2.13101999    18

Suivez COSMOS 2564 en temps réel avec AllMySat

Download on the App Store